SCP
-0 -0 0 -0 -0 0 0 0 -0 -0 -0 -0 -0 0 -0 0 0 0 0 0 -0 1 2 2 1 1 0 0 0 0 0 0 0 0 0 0 0 0 0 0 0 0 0 0
0 -0 -0 0 0 -0 -0 0 0 -0 -0 -0 -0 -0 -0 0 0 0 0 0 -0 0 1 2 1 0 0 0 0 0 0 0 0 0 0 0 0 0 0 0 0 0 0 0
-0 -0 0 0 -0 -0 0 0 -0 0 -0 0 -0 -0 0 0 0 0 0 0 0 0 1 2 1 1 0 0 0 0 0 0 0 0 0 0 0 0 0 0 0 0 0 0
0 -0 0 0 0 0 0 0 0 0 0 0 0 -0 0 0 0 0 0 0 0 0 1 1 1 0 0 0 0 0 0 0 0 0 0 0 0 0 0 0 0 0 0 0
0 0 0 -0 -0 0 0 0 0 -0 -0 0 0 0 0 -0 0 0 0 0 0 0 0 0 0 0 0 0 0 0 0 0 0 0 0 0 -0 -0 -0 0 0 0 0 0
0 0 0 0 0 0 0 -0 0 0 0 0 0 0 0 -0 -0 0 0 0 2 0 0 0 0 0 0 0 0 0 -0 -0 0 -0 -0 0 0 0 -0 -0 0 0 0 0
0 0 0 0 0 0 0 0 0 0 0 0 0 0 0 0 0 0 0 0 1 0 0 -0 0 0 0 0 -0 -0 -0 -0 0 -0 -0 0 0 0 -0 -0 0 0 0 0
0 0 0 -0 0 0 0 -0 0 -0 0 0 0 0 0 0 0 0 0 0 1 0 -0 0 0 0 0 -0 -0 -0 -0 0 -0 -0 -0 -0 0 0 -0 0 -0 0 0 0
0 0 -0 -0 0 -0 -0 -0 -0 0 0 0 0 0 0 0 0 0 0 1 0 0 0 0 0 -0 0 0 -0 0 0 -0 -0 -0 0 -0 -0 0 0 0 0 0 0 0
0 0 0 0 0 -0 0 -0 -0 0 0 0 0 0 0 0 0 0 1 1 0 0 0 0 0 -0 -0 -0 -0 0 -0 -0 -0 -0 -0 -0 -0 0 0 -0 0 0 0 0
0 0 -0 0 0 -0 -0 -0 0 0 0 0 0 0 0 0 0 1 2 1 1 0 0 0 0 0 -0 -0 -0 -0 -0 0 -0 -0 -0 -0 -0 0 0 0 0 0 0 0
0 -0 -0 -0 0 0 -0 0 0 0 0 0 0 0 0 1 2 1 1 0 0 0 0 0 0 -0 -0 0 -0 -0 -0 0 0 -0 -0 -0 -0 -0 -0 -0 0 0 0 0
0 -0 0 0 0 0 -0 -0 0 0 0 0 0 0 1 1 1 1 2 1 0 0 0 0 0 -0 -0 -0 -0 -0 0 0 0 -0 -0 -0 -0 -0 0 0 -0 0 0 -0
0 0 -0 -0 -0 -0 -0 0 0 0 0 0 0 1 0 0 0 1 1 0 0 0 0 0 -0 0 -0 -0 -0 0 -0 0 -0 -0 -0 -0 -0 -0 0 0 0 0 0 -0
0 -0 0 -0 0 0 0 0 0 0 0 0 0 0 0 0 0 0 0 0 1 0 -0 -0 0 0 -0 -0 -0 -0 0 -0 0 -0 -0 -0 -0 0 0 0 0 0 0 0
-0 0 -0 0 0 0 0 0 0 0 0 0 0 0 0 0 0 0 0 0 0 0 0 0 1 0 -0 0 -0 -0 -0 0 0 -0 -0 -0 -0 0 0 0 -0 -0 -0 0
-0 0 -0 0 0 0 0 0 0 0 0 0 0 0 0 0 0 0 0 0 0 0 0 0 0 0 0 0 -0 -0 0 0 0 0 -0 -0 0 0 0 -0 -0 -0 0 0
-0 -0 -0 0 0 0 0 0 0 0 0 0 0 0 0 0 0 0 0 0 0 0 0 0 0 0 0 0 0 0 0 0 0 -0 -0 0 0 -0 0 0 0 0 0 0
-0 -0 -0 0 0 0 0 0 0 0 0 0 0 0 0 0 0 0 0 0 0 0 0 0 0 0 0 0 0 0 0 0 0 0 0 0 0 0 0 0 -0 -0 -0 -0
-0 -0 -0 -0 -0 0 0 0 0 0 0 0 0 0 0 0 0 0 0 0 0 0 0 0 0 0 0 0 0 1 0 0 0 0 0 0 0 0 0 0 0 -0 -0 0
-0 -0 -0 -0 -0 0 0 0 0 0 0 0 0 0 0 0 0 0 0 0 0 0 0 0 0 0 0 0 0 0 0 0 0 0 0 0 0 0 0 0 0 0 0 0
0 -0 0 -0 -0 -0 0 -0 0 0 0 0 0 0 0 0 0 0 0 0 0 0 0 0 0 0 0 0 0 0 0 0 0 0 0 1 0 0 0 0 0 0 0 0
0 0 0 0 0 0 -0 -0 0 0 0 0 0 0 0 0 0 0 0 0 0 0 0 0 0 0 0 0 0 0 0 0 0 0 0 0 0 0 0 0 0 0 0 0
0 0 0 0 0 0 0 0 0 0 0 0 0 0 0 0 0 0 0 0 0 0 0 0 0 0 0 0 0 0 0 0 0 0 0 0 0 0 0 0 0 0 0 0
-0 0 -0 0 0 0 0 0 -0 -0 0 0 0 0 0 0 0 0 0 0 0 0 0 0 0 0 0 0 0 0 0 0 0 0 0 0 0 0 0 0 0 0 0 0
-0 -0 -0 0 0 -0 0 0 -0 0 -0 0 0 0 0 0 0 0 0 0 0 0 0 0 0 0 0 0 0 0 0 0 0 0 0 0 0 0 0 0 0 0 0 0
0 -0 -0 -0 -0 0 0 0 0 0 0 0 -0 0 0 0 0 0 0 0 0 0 0 0 0 0 0 0 0 0 0 0 0 0 0 0 0 0 0 0 0 0 0 0
Wind_Speed_500mb
42 43 38 45 39 30 36 40 42 44 39 28 24 40 55 37 25 34 31 21 15 12 6 33 41 47 48 47 47 47 46 43 40 37 34 32 32 31 30 27 26 23 17 13
41 42 42 44 42 36 38 42 55 48 46 35 35 48 44 46 39 33 30 21 10 23 20 20 43 49 48 48 47 45 42 39 37 35 34 32 34 35 31 30 27 22 16 13
36 39 33 35 37 37 37 41 47 48 43 38 35 31 30 37 35 32 29 24 9 31 34 32 49 48 49 48 45 42 39 38 36 34 32 36 34 31 31 28 25 22 16 8
19 25 22 21 20 28 31 35 28 41 35 38 42 41 47 43 37 30 27 25 16 35 45 52 37 47 47 45 42 40 38 37 33 31 29 31 31 33 31 25 23 21 18 13
9 15 29 44 25 16 18 40 38 42 51 43 59 56 41 32 35 29 32 24 17 42 49 52 50 49 46 44 42 39 37 33 30 29 31 34 34 35 26 24 21 21 18 15
9 10 9 4 16 15 15 34 17 21 23 27 29 23 12 25 19 10 24 25 18 46 54 62 51 49 46 43 41 38 36 34 28 30 33 33 34 29 27 22 20 19 18 15
21 17 15 17 19 22 11 11 35 35 31 37 25 24 52 17 15 24 28 28 13 51 52 58 53 49 44 43 39 40 34 28 27 27 26 33 32 30 27 23 20 21 19 14
7 10 3 31 14 7 22 52 44 44 45 42 42 39 40 33 28 31 34 28 36 51 57 55 51 47 45 42 41 37 33 31 28 30 31 29 28 24 23 24 22 21 17 18
6 10 41 44 34 47 46 48 57 50 51 45 46 39 40 39 30 28 30 29 50 49 56 53 50 48 47 43 40 40 33 31 30 30 28 29 27 27 25 23 23 23 21 17
5 10 27 44 34 46 27 45 61 71 61 49 47 41 43 30 30 29 29 29 49 52 57 53 49 47 46 44 42 37 38 34 33 32 29 24 21 23 21 23 23 23 23 21
23 28 34 18 29 43 41 54 65 34 31 31 39 42 27 26 29 29 20 43 46 58 54 51 49 49 48 46 41 44 38 36 34 29 24 18 18 14 13 20 23 22 22 20
7 21 25 27 46 39 51 62 55 30 28 18 19 23 20 22 25 15 17 47 38 56 52 51 51 51 48 44 43 40 41 36 36 27 22 21 16 16 15 13 23 22 22 21
22 25 27 38 40 40 46 63 37 29 20 16 20 20 21 7 2 3 23 52 43 50 52 52 51 52 47 43 41 38 39 36 30 24 23 21 24 17 16 19 22 25 27 24
26 31 28 34 43 42 50 45 33 27 24 18 28 19 26 25 12 15 31 17 55 53 52 51 50 50 48 43 41 37 34 32 26 27 18 21 24 20 18 17 19 23 22 19
28 37 37 41 42 41 42 38 34 38 35 35 44 43 47 28 18 15 30 36 45 56 52 49 47 44 44 43 40 36 33 31 23 25 30 22 28 25 21 20 23 22 27 28
34 35 39 45 43 36 36 41 45 38 36 37 39 44 31 28 29 27 32 39 52 44 44 44 43 27 35 38 38 36 31 28 22 28 22 21 29 26 22 25 24 21 21 29
33 38 41 43 40 34 32 34 37 38 30 32 28 31 31 40 39 32 32 37 47 55 54 49 52 34 22 24 39 38 36 30 21 25 24 26 26 27 25 27 34 25 23 21
24 25 25 36 42 34 29 33 41 38 30 27 30 36 45 43 44 45 40 37 35 34 37 32 34 52 47 38 39 33 36 33 29 29 26 25 25 23 27 34 34 36 25 23
24 29 30 39 40 34 24 32 36 32 28 26 40 51 53 50 45 42 45 47 44 39 31 30 28 33 51 55 35 27 33 35 31 25 27 26 24 26 24 21 31 35 28 28
26 29 32 33 34 36 31 32 30 30 30 34 48 49 51 47 43 38 49 52 55 37 32 27 25 30 44 50 43 9 25 30 34 24 27 27 26 24 24 22 25 27 28 26
19 26 29 33 39 40 38 36 39 34 36 37 45 50 46 41 34 39 51 50 39 36 37 34 32 30 25 43 41 37 31 30 31 27 24 18 22 18 27 28 21 33 35 28
17 21 25 29 34 36 36 34 31 30 35 36 33 31 32 35 33 44 43 43 34 24 29 25 28 21 8 19 30 33 36 38 35 37 38 28 26 30 35 39 41 36 35 36
17 18 20 24 28 31 30 33 33 35 37 37 39 40 38 38 35 38 42 34 35 27 28 28 23 19 10 14 29 31 35 40 49 47 52 47 45 43 44 42 42 44 43 44
13 15 18 20 22 28 32 29 35 35 37 39 38 35 37 40 41 39 34 33 34 37 33 29 20 17 14 27 31 40 39 39 39 35 35 36 40 43 42 40 38 35 33 30
11 12 14 16 19 23 25 25 28 31 34 39 42 45 46 44 42 41 37 35 37 41 44 35 32 31 35 33 37 45 45 40 36 34 33 33 33 31 31 30 31 32 35 37
10 12 11 14 17 19 21 22 26 28 29 33 34 32 41 49 53 48 47 52 55 57 59 61 60 58 59 59 58 55 60 55 56 57 58 58 59 60 60 57 58 61 62 60
14 12 13 15 15 15 17 20 23 26 28 31 34 32 33 34 42 45 48 50 54 62 66 69 74 74 75 73 74 73 73 73 72 74 72 71 70 67 63 63 57 54 52 53
Wind_Direction_500mb
272 277 278 278 283 271 266 269 267 283 284 282 240 283 301 327 316 319 315 344 110 169 101 144 154 151 148 146 147 148 147 147 145 146 148 151 152 156 156 156 165 168 153 164
288 280 267 264 262 257 259 268 273 274 278 277 263 266 278 282 292 296 306 323 93 162 165 138 148 154 148 148 148 149 148 147 145 146 149 153 158 157 154 166 156 153 159 170
280 276 286 270 271 266 261 262 260 266 272 274 277 279 283 290 282 280 284 294 330 174 169 157 157 149 151 149 150 148 146 145 148 151 158 159 158 158 162 158 161 157 145 183
266 299 265 281 355 349 325 310 289 286 298 308 301 285 272 271 274 268 277 279 308 183 168 166 166 157 152 153 151 148 148 149 151 157 163 159 161 162 163 163 166 150 140 140
256 241 277 289 321 331 304 280 291 295 295 283 275 278 271 262 267 268 262 267 258 189 168 166 167 159 155 155 153 153 154 155 158 160 159 159 159 168 160 164 153 141 140 138
281 262 274 6 72 11 299 273 33 351 328 316 301 274 255 249 232 265 304 325 293 176 163 164 167 158 159 159 158 160 153 146 159 162 159 162 166 164 166 165 150 146 137 139
250 252 265 49 355 327 237 339 340 325 297 290 286 295 318 323 303 292 300 295 212 167 162 164 161 160 162 160 165 147 143 154 156 160 165 164 168 173 165 166 160 150 140 143
292 267 345 341 348 233 315 309 308 302 290 293 288 290 300 293 281 284 298 303 181 166 169 161 160 161 160 164 151 146 157 157 152 155 161 163 169 166 167 170 160 169 151 141
202 287 300 309 297 298 289 277 289 285 282 275 274 279 276 281 281 292 270 291 178 172 155 159 162 164 161 159 148 150 161 148 153 157 159 167 167 171 175 174 177 176 159 156
295 269 315 313 309 304 307 307 302 287 274 260 257 264 269 274 278 280 284 185 168 159 161 159 163 165 164 157 150 156 150 150 150 151 152 160 176 177 187 183 181 181 168 169
272 289 319 282 294 320 323 320 320 310 286 245 239 255 254 270 264 272 241 179 170 165 158 160 163 164 164 160 153 157 149 153 153 149 150 148 158 154 175 186 181 180 174 170
296 334 294 325 343 343 335 322 329 327 315 283 264 266 271 285 260 229 214 175 180 156 159 161 161 163 163 162 157 155 152 162 161 156 154 146 135 140 146 156 170 175 169 164
328 334 358 339 335 340 330 332 341 339 329 303 296 256 254 160 32 233 133 165 164 153 159 160 161 162 163 161 157 160 161 161 159 156 152 160 146 142 137 144 162 180 172 176
29 7 355 351 340 340 345 346 357 6 21 62 59 118 109 96 105 47 165 175 158 154 155 158 161 162 164 162 160 161 165 158 167 151 146 153 146 149 139 138 144 155 166 170
42 21 354 345 345 350 353 1 15 23 38 59 71 78 82 92 81 54 49 89 112 147 149 153 158 159 166 166 164 167 159 170 175 152 145 139 152 142 148 135 140 149 153 154
15 7 6 352 350 4 3 11 21 29 46 63 72 72 83 101 108 113 88 90 121 119 111 106 125 142 169 170 174 172 175 177 185 150 140 141 151 149 145 142 139 145 151 170
14 10 0 357 3 12 16 15 23 31 51 64 81 88 102 96 90 112 125 119 125 132 147 152 152 147 151 142 178 181 179 182 179 166 155 152 147 157 138 140 142 149 150 177
28 20 14 1 8 23 28 23 26 36 49 66 85 99 92 98 95 98 104 117 130 139 149 161 174 163 164 158 175 180 181 172 179 168 161 157 146 151 160 152 150 144 139 137
19 19 18 12 14 26 41 47 32 38 46 65 81 85 87 84 88 98 106 108 109 113 112 135 157 183 170 170 175 170 183 172 188 180 165 147 150 150 153 155 145 142 138 137
16 19 21 25 22 26 35 47 58 47 47 57 71 77 80 86 84 76 94 88 91 98 106 115 139 171 181 170 167 163 179 174 183 185 170 168 174 165 149 157 159 154 137 151
37 28 20 26 33 32 28 31 39 34 44 57 69 65 62 70 91 95 89 85 86 95 100 109 107 103 143 178 183 162 164 166 179 183 157 172 162 170 161 157 129 133 136 145
51 43 43 45 45 41 38 41 41 47 51 56 64 71 77 73 60 72 81 81 79 79 88 82 82 88 100 169 191 187 184 183 173 151 147 134 126 130 124 119 114 136 130 145
66 68 63 56 57 59 54 53 51 53 55 56 59 67 71 71 75 80 78 75 87 82 80 82 77 102 144 159 171 172 174 183 182 171 176 175 168 157 151 159 154 170 175 174
73 76 79 74 70 67 59 53 56 58 61 63 68 76 79 82 80 77 82 86 84 91 90 85 90 84 108 139 147 165 169 166 169 168 170 172 174 172 168 169 170 169 170 173
95 88 84 77 65 61 65 63 61 61 61 61 66 72 75 79 82 79 79 85 90 88 87 82 84 90 97 109 119 123 129 136 141 148 149 147 141 136 130 127 125 121 116 116
131 104 92 90 86 77 69 67 69 67 68 72 72 64 66 72 75 80 86 89 90 91 91 90 86 86 89 91 92 97 105 110 114 115 116 115 115 114 112 111 107 103 100 97
152 132 113 103 93 88 90 84 79 79 75 75 77 75 73 73 67 69 73 81 86 90 89 89 89 86 85 85 91 94 95 97 100 102 101 100 99 98 96 93 93 92 90 88
Wind_Speed_850mb
42 43 38 45 39 30 36 40 42 44 39 28 24 40 55 37 25 34 31 21 15 12 6 33 41 47 48 47 47 47 46 43 40 37 34 32 32 31 30 27 26 23 17 13
41 42 42 44 42 36 38 42 55 48 46 35 35 48 44 46 39 33 30 21 10 23 20 20 43 49 48 48 47 45 42 39 37 35 34 32 34 35 31 30 27 22 16 13
36 39 33 35 37 37 37 41 47 48 43 38 35 31 30 37 35 32 29 24 9 31 34 32 49 48 49 48 45 42 39 38 36 34 32 36 34 31 31 28 25 22 16 8
19 25 22 21 20 28 31 35 28 41 35 38 42 41 47 43 37 30 27 25 16 35 45 52 37 47 47 45 42 40 38 37 33 31 29 31 31 33 31 25 23 21 18 13
9 15 29 44 25 16 18 40 38 42 51 43 59 56 41 32 35 29 32 24 17 42 49 52 50 49 46 44 42 39 37 33 30 29 31 34 34 35 26 24 21 21 18 15
9 10 9 4 16 15 15 34 17 21 23 27 29 23 12 25 19 10 24 25 18 46 54 62 51 49 46 43 41 38 36 34 28 30 33 33 34 29 27 22 20 19 18 15
21 17 15 17 19 22 11 11 35 35 31 37 25 24 52 17 15 24 28 28 13 51 52 58 53 49 44 43 39 40 34 28 27 27 26 33 32 30 27 23 20 21 19 14
7 10 3 31 14 7 22 52 44 44 45 42 42 39 40 33 28 31 34 28 36 51 57 55 51 47 45 42 41 37 33 31 28 30 31 29 28 24 23 24 22 21 17 18
6 10 41 44 34 47 46 48 57 50 51 45 46 39 40 39 30 28 30 29 50 49 56 53 50 48 47 43 40 40 33 31 30 30 28 29 27 27 25 23 23 23 21 17
5 10 27 44 34 46 27 45 61 71 61 49 47 41 43 30 30 29 29 29 49 52 57 53 49 47 46 44 42 37 38 34 33 32 29 24 21 23 21 23 23 23 23 21
23 28 34 18 29 43 41 54 65 34 31 31 39 42 27 26 29 29 20 43 46 58 54 51 49 49 48 46 41 44 38 36 34 29 24 18 18 14 13 20 23 22 22 20
7 21 25 27 46 39 51 62 55 30 28 18 19 23 20 22 25 15 17 47 38 56 52 51 51 51 48 44 43 40 41 36 36 27 22 21 16 16 15 13 23 22 22 21
22 25 27 38 40 40 46 63 37 29 20 16 20 20 21 7 2 3 23 52 43 50 52 52 51 52 47 43 41 38 39 36 30 24 23 21 24 17 16 19 22 25 27 24
26 31 28 34 43 42 50 45 33 27 24 18 28 19 26 25 12 15 31 17 55 53 52 51 50 50 48 43 41 37 34 32 26 27 18 21 24 20 18 17 19 23 22 19
28 37 37 41 42 41 42 38 34 38 35 35 44 43 47 28 18 15 30 36 45 56 52 49 47 44 44 43 40 36 33 31 23 25 30 22 28 25 21 20 23 22 27 28
34 35 39 45 43 36 36 41 45 38 36 37 39 44 31 28 29 27 32 39 52 44 44 44 43 27 35 38 38 36 31 28 22 28 22 21 29 26 22 25 24 21 21 29
33 38 41 43 40 34 32 34 37 38 30 32 28 31 31 40 39 32 32 37 47 55 54 49 52 34 22 24 39 38 36 30 21 25 24 26 26 27 25 27 34 25 23 21
24 25 25 36 42 34 29 33 41 38 30 27 30 36 45 43 44 45 40 37 35 34 37 32 34 52 47 38 39 33 36 33 29 29 26 25 25 23 27 34 34 36 25 23
24 29 30 39 40 34 24 32 36 32 28 26 40 51 53 50 45 42 45 47 44 39 31 30 28 33 51 55 35 27 33 35 31 25 27 26 24 26 24 21 31 35 28 28
26 29 32 33 34 36 31 32 30 30 30 34 48 49 51 47 43 38 49 52 55 37 32 27 25 30 44 50 43 9 25 30 34 24 27 27 26 24 24 22 25 27 28 26
19 26 29 33 39 40 38 36 39 34 36 37 45 50 46 41 34 39 51 50 39 36 37 34 32 30 25 43 41 37 31 30 31 27 24 18 22 18 27 28 21 33 35 28
17 21 25 29 34 36 36 34 31 30 35 36 33 31 32 35 33 44 43 43 34 24 29 25 28 21 8 19 30 33 36 38 35 37 38 28 26 30 35 39 41 36 35 36
17 18 20 24 28 31 30 33 33 35 37 37 39 40 38 38 35 38 42 34 35 27 28 28 23 19 10 14 29 31 35 40 49 47 52 47 45 43 44 42 42 44 43 44
13 15 18 20 22 28 32 29 35 35 37 39 38 35 37 40 41 39 34 33 34 37 33 29 20 17 14 27 31 40 39 39 39 35 35 36 40 43 42 40 38 35 33 30
11 12 14 16 19 23 25 25 28 31 34 39 42 45 46 44 42 41 37 35 37 41 44 35 32 31 35 33 37 45 45 40 36 34 33 33 33 31 31 30 31 32 35 37
10 12 11 14 17 19 21 22 26 28 29 33 34 32 41 49 53 48 47 52 55 57 59 61 60 58 59 59 58 55 60 55 56 57 58 58 59 60 60 57 58 61 62 60
14 12 13 15 15 15 17 20 23 26 28 31 34 32 33 34 42 45 48 50 54 62 66 69 74 74 75 73 74 73 73 73 72 74 72 71 70 67 63 63 57 54 52 53
Wind_Direction_850mb
272 277 278 278 283 271 266 269 267 283 284 282 240 283 301 327 316 319 315 344 110 169 101 144 154 151 148 146 147 148 147 147 145 146 148 151 152 156 156 156 165 168 153 164
288 280 267 264 262 257 259 268 273 274 278 277 263 266 278 282 292 296 306 323 93 162 165 138 148 154 148 148 148 149 148 147 145 146 149 153 158 157 154 166 156 153 159 170
280 276 286 270 271 266 261 262 260 266 272 274 277 279 283 290 282 280 284 294 330 174 169 157 157 149 151 149 150 148 146 145 148 151 158 159 158 158 162 158 161 157 145 183
266 299 265 281 355 349 325 310 289 286 298 308 301 285 272 271 274 268 277 279 308 183 168 166 166 157 152 153 151 148 148 149 151 157 163 159 161 162 163 163 166 150 140 140
256 241 277 289 321 331 304 280 291 295 295 283 275 278 271 262 267 268 262 267 258 189 168 166 167 159 155 155 153 153 154 155 158 160 159 159 159 168 160 164 153 141 140 138
281 262 274 6 72 11 299 273 33 351 328 316 301 274 255 249 232 265 304 325 293 176 163 164 167 158 159 159 158 160 153 146 159 162 159 162 166 164 166 165 150 146 137 139
250 252 265 49 355 327 237 339 340 325 297 290 286 295 318 323 303 292 300 295 212 167 162 164 161 160 162 160 165 147 143 154 156 160 165 164 168 173 165 166 160 150 140 143
292 267 345 341 348 233 315 309 308 302 290 293 288 290 300 293 281 284 298 303 181 166 169 161 160 161 160 164 151 146 157 157 152 155 161 163 169 166 167 170 160 169 151 141
202 287 300 309 297 298 289 277 289 285 282 275 274 279 276 281 281 292 270 291 178 172 155 159 162 164 161 159 148 150 161 148 153 157 159 167 167 171 175 174 177 176 159 156
295 269 315 313 309 304 307 307 302 287 274 260 257 264 269 274 278 280 284 185 168 159 161 159 163 165 164 157 150 156 150 150 150 151 152 160 176 177 187 183 181 181 168 169
272 289 319 282 294 320 323 320 320 310 286 245 239 255 254 270 264 272 241 179 170 165 158 160 163 164 164 160 153 157 149 153 153 149 150 148 158 154 175 186 181 180 174 170
296 334 294 325 343 343 335 322 329 327 315 283 264 266 271 285 260 229 214 175 180 156 159 161 161 163 163 162 157 155 152 162 161 156 154 146 135 140 146 156 170 175 169 164
328 334 358 339 335 340 330 332 341 339 329 303 296 256 254 160 32 233 133 165 164 153 159 160 161 162 163 161 157 160 161 161 159 156 152 160 146 142 137 144 162 180 172 176
29 7 355 351 340 340 345 346 357 6 21 62 59 118 109 96 105 47 165 175 158 154 155 158 161 162 164 162 160 161 165 158 167 151 146 153 146 149 139 138 144 155 166 170
42 21 354 345 345 350 353 1 15 23 38 59 71 78 82 92 81 54 49 89 112 147 149 153 158 159 166 166 164 167 159 170 175 152 145 139 152 142 148 135 140 149 153 154
15 7 6 352 350 4 3 11 21 29 46 63 72 72 83 101 108 113 88 90 121 119 111 106 125 142 169 170 174 172 175 177 185 150 140 141 151 149 145 142 139 145 151 170
14 10 0 357 3 12 16 15 23 31 51 64 81 88 102 96 90 112 125 119 125 132 147 152 152 147 151 142 178 181 179 182 179 166 155 152 147 157 138 140 142 149 150 177
28 20 14 1 8 23 28 23 26 36 49 66 85 99 92 98 95 98 104 117 130 139 149 161 174 163 164 158 175 180 181 172 179 168 161 157 146 151 160 152 150 144 139 137
19 19 18 12 14 26 41 47 32 38 46 65 81 85 87 84 88 98 106 108 109 113 112 135 157 183 170 170 175 170 183 172 188 180 165 147 150 150 153 155 145 142 138 137
16 19 21 25 22 26 35 47 58 47 47 57 71 77 80 86 84 76 94 88 91 98 106 115 139 171 181 170 167 163 179 174 183 185 170 168 174 165 149 157 159 154 137 151
37 28 20 26 33 32 28 31 39 34 44 57 69 65 62 70 91 95 89 85 86 95 100 109 107 103 143 178 183 162 164 166 179 183 157 172 162 170 161 157 129 133 136 145
51 43 43 45 45 41 38 41 41 47 51 56 64 71 77 73 60 72 81 81 79 79 88 82 82 88 100 169 191 187 184 183 173 151 147 134 126 130 124 119 114 136 130 145
66 68 63 56 57 59 54 53 51 53 55 56 59 67 71 71 75 80 78 75 87 82 80 82 77 102 144 159 171 172 174 183 182 171 176 175 168 157 151 159 154 170 175 174
73 76 79 74 70 67 59 53 56 58 61 63 68 76 79 82 80 77 82 86 84 91 90 85 90 84 108 139 147 165 169 166 169 168 170 172 174 172 168 169 170 169 170 173
95 88 84 77 65 61 65 63 61 61 61 61 66 72 75 79 82 79 79 85 90 88 87 82 84 90 97 109 119 123 129 136 141 148 149 147 141 136 130 127 125 121 116 116
131 104 92 90 86 77 69 67 69 67 68 72 72 64 66 72 75 80 86 89 90 91 91 90 86 86 89 91 92 97 105 110 114 115 116 115 115 114 112 111 107 103 100 97
152 132 113 103 93 88 90 84 79 79 75 75 77 75 73 73 67 69 73 81 86 90 89 89 89 86 85 85 91 94 95 97 100 102 101 100 99 98 96 93 93 92 90 88